Location: Newark
(54.2500°N, 9.1833°E)
Time: 18:51:58
(UTC+00:00)

deb Explorer IX - Visible Passes

Search period start: 07 December 2019 00:00
Search period end: 17 December 2019 00:00
Orbit: 545 x 1105 km, 38.8° (Epoch: 06 December)

Date Brightness Start Highest point End Pass type
(mag) Time Alt. Az. Time Alt. Az. Time Alt. Az.
07 Dec ? 17:29:50 10° SSW 17:34:01 18° SSE 17:36:30 15° SE visible
07 Dec ? 19:14:49 10° SW 19:17:52 20° SSW 19:17:52 20° SSW visible
08 Dec ? 17:07:48 10° SSW 17:11:52 17° SSE 17:15:36 11° SE visible
08 Dec ? 18:52:45 10° SW 18:56:58 22° S 18:56:58 22° S visible
09 Dec ? 16:45:48 10° SSW 16:49:42 17° SSE 16:53:52 10° SE visible
09 Dec ? 18:30:43 10° SW 18:35:37 22° S 18:36:05 22° S visible
09 Dec ? 20:17:24 10° SW 20:17:27 10° SW 20:17:27 10° SW visible
10 Dec ? 16:23:49 10° SSW 16:27:34 16° SSE 16:31:33 10° SE visible
10 Dec ? 18:08:42 10° SW 18:13:27 21° S 18:15:13 19° SSE visible
10 Dec ? 19:55:21 10° SW 19:56:35 13° SW 19:56:35 13° SW visible
11 Dec ? 16:01:52 10° SSW 16:05:25 16° SSE 16:09:13 10° SE visible
11 Dec ? 17:46:41 10° SW 17:51:17 21° S 17:54:23 15° SSE visible
11 Dec ? 19:33:21 10° SW 19:35:45 15° SSW 19:35:45 15° SSW visible
12 Dec ? 15:39:56 10° SSW 15:43:18 15° SSE 15:46:53 10° SE visible
12 Dec ? 17:24:42 10° SW 17:29:07 20° S 17:33:35 11° SE visible
12 Dec ? 19:11:22 10° SW 19:14:58 15° SSW 19:14:58 15° SSW visible
13 Dec ? 17:02:45 10° SW 17:06:58 19° S 17:11:33 10° SE visible
13 Dec ? 18:49:24 10° SW 18:52:53 15° SSW 18:54:16 14° S visible
14 Dec ? 16:40:48 10° SW 16:44:49 19° S 16:49:12 10° SE visible
14 Dec ? 18:27:30 10° SW 18:30:43 14° SSW 18:33:39 11° S visible
15 Dec ? 16:18:53 10° SW 16:22:41 18° S 16:26:50 10° SE visible
15 Dec ? 18:05:37 10° SW 18:08:33 14° SSW 18:11:38 10° S visible
16 Dec ? 15:56:59 10° SW 16:00:34 17° S 16:04:28 10° SE visible
16 Dec ? 17:43:47 10° SW 17:46:25 13° SSW 17:49:09 10° S visible
